Location: ??????
(55.7522°N, 37.6156°E)
Time: 03:05:57
(UTC+00:00)

USA 290 - Pass Details

Date: 14 June 2025
Orbit: 392 x 417 km, 73.6° (Epoch: 20 June)

Event Time Altitude Azimuth Distance (km) Brightness Sun altitude
Exits shadow 20:37:49 - 219° (SW) 1,787 5.1 -10.2°
Reaches altitude 10° 20:38:39 10° 221° (SW) 1,443 4.6 -10.2°
Maximum altitude 20:41:46 58° 302° (WNW) 475 2.7 -10.3°
Drops below altitude 10° 20:44:57 10° 23° (NNE) 1,467 5.9 -10.4°
Sets 20:47:02 0° 27° (NNE) 2,336 7.0 -10.4°
